Tracking 19562 objects as of 22-Mar-2019
HD Live streaming from Space Station
objects crossing your sky now

COSMOS 861

Track COSMOS 861 now!
10-day predictions
COSMOS 861 is classified as:


NORAD ID: 9494
Int'l Code: 1976-104A
Perigee: 917.2 km
Apogee: 1,013.6 km
Inclination: 64.9 °
Period: 104.2 minutes
Semi major axis: 7336 km
RCS: 3.0754 m2 (large)
Launch date: October 21, 1976
Source: Commonwealth of Independent States (former USSR) (CIS)
Launch site: TYURATAM MISSILE AND SPACE COMPLEX (TTMTR)
aabbcc
Your satellite tracking list
Your tracking list is empty




NASA's NSSDC Master Catalog

Two Line Element Set (TLE):
1  9494U 76104A   19081.55785955 -.00000098  00000-0 -84302-5 0  9993
2  9494  64.8584  74.9407 0065683 251.8472 107.5426 13.81579424140937
Source of the keplerian elements: AFSPC